Stations météo

Publicité
Montauban, France (7540): Température de l'air & dewpoint: 03.04.2020 13:00:00 - 09.04.2020 13:00:00 (CEST)Montauban, France (7540): Température de l'air 5cm: 03.04.2020 13:00:00 - 09.04.2020 13:00:00 (CEST)Montauban, France (7540): Température de l'air -20cm & Température de l'air -100cm: 03.04.2020 13:00:00 - 09.04.2020 13:00:00 (CEST)Montauban, France (7540): Vitesse du vent & gusts: 03.04.2020 13:00:00 - 09.04.2020 13:00:00 (CEST)Montauban, France (7540): Direction du vent: 03.04.2020 13:00:00 - 09.04.2020 13:00:00 (CEST)Montauban, France (7540): reduced air pressure: 03.04.2020 13:00:00 - 09.04.2020 13:00:00 (CEST)Montauban, France (7540): visibility: 03.04.2020 13:00:00 - 09.04.2020 13:00:00 (CEST)Montauban, France (7540): Ensoleillement: 03.04.2020 13:00:00 - 09.04.2020 13:00:00 (CEST)Montauban, France (7540): Quantités de précipitations: 03.04.2020 13:00:00 - 09.04.2020 13:00:00 (CEST)
Date & Time tt [°C] td [°C] tt 5cm [°C] tt -20cm [°C] tt -100cm [°C] ff [km/h] ff [knt] fx [km/h] fx [knt] dd ppp [hPa] vv [km] sd [min] rr [mm]
09.04.2020 13:00:00 20,7 5,1 23,1 14,2 13,0 10 6 18 10 SSE 1021,4 20 60 0,0
09.04.2020 12:00:00 19,7 4,6 23,0 14,2 13,0 8 5 16 9 SE 1021,9 20 60 0,0
09.04.2020 11:00:00 17,2 5,8 21,2 14,3 13,0 2 1 9 5 WSW 1022,4 20 60 0,0
09.04.2020 10:00:00 14,8 4,2 16,3 14,4 12,9 0 0 5 3 N 1022,6 20 60 0,0
09.04.2020 09:00:00 11,2 3,9 9,5 14,5 13,0 3 2 8 5 ENE 1022,7 20 60 0,0
09.04.2020 08:00:00 6,7 3,7 3,2 14,6 12,9 0 0 4 2 N 1022,6 20 18 0,0
09.04.2020 07:00:00 5,9 2,5 3,1 14,8 12,9 0 0 3 2 N 1022,1 20 0 0,0
09.04.2020 06:00:00 6,8 3,2 3,2 14,9 13,0 2 1 4 2 SSE 1022,1 20 0 0,0
09.04.2020 05:00:00 7,0 2,9 4,1 15,1 13,0 2 1 4 2 SSE 1022,3 20 0 0,0
09.04.2020 04:00:00 7,9 3,0 4,9 15,2 12,9 2 1 5 3 ENE 1022,3 20 0 0,0
09.04.2020 03:00:00 8,9 3,9 5,0 15,3 12,9 3 2 8 4 S 1022,6 20 0 0,0
09.04.2020 02:00:00 9,5 3,2 5,8 15,4 12,9 0 0 8 4 N 1023,0 20 0 0,0
09.04.2020 01:00:00 11,8 4,3 7,8 15,4 12,9 6 3 11 6 ESE 1023,0 20 0 0,0
09.04.2020 00:00:00 14,4 4,7 11,3 15,4 12,9 5 3 9 5 ESE 1023,0 20 0 0,0
08.04.2020 23:00:00 15,2 5,7 11,9 15,4 12,9 7 4 13 7 E 1022,8 20 0 0,0
08.04.2020 22:00:00 16,8 6,0 11,9 15,4 12,9 11 6 19 10 S 1022,5 20 0 0,0
08.04.2020 21:00:00 17,4 7,2 12,9 15,3 12,9 5 3 10 5 S 1021,9 20 8 0,0
08.04.2020 20:00:00 20,5 6,4 21,4 15,1 12,9 3 2 13 7 ESE 1021,4 18 60 0,0
08.04.2020 19:00:00 21,5 7,0 25,2 14,9 12,9 5 3 16 9 SE 1021,3 20 60 0,0
08.04.2020 18:00:00 22,0 6,2 27,5 14,6 12,9 9 5 22 12 SE 1021,3 20 60 0,0
08.04.2020 17:00:00 21,6 6,7 26,8 14,5 12,9 11 6 18 10 ESE 1021,8 20 60 0,0
08.04.2020 16:00:00 20,7 7,0 25,6 14,3 12,9 3 2 19 10 E 1022,4 20 51 0,0
08.04.2020 15:00:00 19,8 6,5 21,0 14,2 12,9 8 4 19 11 ESE 1023,1 20 39 0,0
08.04.2020 14:00:00 17,0 5,3 18,8 14,1 12,9 10 5 21 11 SSE 1024,1 20 4 0,0
08.04.2020 13:00:00 16,9 5,5 17,0 14,1 12,8 8 5 14 7 SSE 1024,7 20 9 0,0
08.04.2020 12:00:00 15,0 3,8 18,0 14,1 12,8 6 3 9 5 S 1025,3 20 0 0,0
08.04.2020 11:00:00 14,5 4,5 15,5 14,1 12,8 3 1 6 3 ESE 1025,5 20 0 0,0
08.04.2020 10:00:00 13,3 6,9 13,0 14,2 12,8 2 1 5 3 ENE 1025,3 20 0 0,0
08.04.2020 09:00:00 11,8 6,5 10,4 14,3 12,9 4 2 9 5 ESE 1025,1 20 0 0,0
08.04.2020 08:00:00 10,7 5,0 9,4 14,3 12,8 3 2 7 4 ESE 1024,8 20 0 0,0
08.04.2020 07:00:00 11,1 4,8 9,3 14,4 12,8 0 0 5 3 N 1024,6 20 0 0,0
08.04.2020 06:00:00 11,2 3,7 8,4 14,4 12,8 4 2 6 3 SE 1024,3 20 0 0,0
08.04.2020 05:00:00 11,0 3,5 8,2 14,5 12,8 3 2 4 2 SSE 1024,4 20 0 0,0
08.04.2020 04:00:00 11,2 2,7 7,9 14,6 12,8 3 2 6 3 S 1024,5 20 0 0,0
08.04.2020 03:00:00 12,2 2,1 8,0 14,6 12,8 2 1 5 3 SSE 1024,9 20 0 0,0
08.04.2020 02:00:00 13,6 1,6 10,8 14,7 12,8 0 0 4 2 N 1025,0 20 0 0,0
08.04.2020 01:00:00 13,9 0,2 11,4 14,8 12,8 0 0 8 4 N 1025,1 20 0 0,0
08.04.2020 00:00:00 13,8 0,1 11,1 14,8 12,8 7 4 13 7 S 1024,9 20 0 0,0
07.04.2020 23:00:00 15,7 -1,4 14,5 14,8 12,8 11 6 24 13 S 1024,9 20 0 0,0
07.04.2020 22:00:00 16,1 -2,0 14,6 14,8 12,8 16 9 25 14 SSE 1024,7 20 0 0,0
07.04.2020 21:00:00 17,5 -2,2 16,0 14,7 12,8 17 9 25 14 SSE 1024,3 20 0 0,0
07.04.2020 20:00:00 18,4 0,9 17,6 14,6 12,7 14 8 22 12 SSE 1023,8 20 0 0,0
07.04.2020 19:00:00 19,3 2,2 19,7 14,5 12,8 15 8 31 17 SSE 1023,6 20 1 0,0
07.04.2020 18:00:00 20,8 4,8 21,7 14,4 12,8 18 10 31 17 SSE 1023,2 20 18 0,0
07.04.2020 17:00:00 20,4 4,4 22,2 14,2 12,7 16 9 37 20 SSE 1023,1 20 4 0,0
07.04.2020 16:00:00 20,7 3,4 22,9 14,1 12,8 21 11 42 23 SE 1023,1 20 0 0,0
07.04.2020 15:00:00 20,7 3,4 22,9 13,9 12,7 21 12 37 20 SSE 1023,4 20 12 0,0
07.04.2020 14:00:00 20,1 3,3 23,2 13,8 12,7 22 12 40 22 SE 1023,8 20 20 0,0
07.04.2020 13:00:00 19,6 3,3 22,9 13,7 12,7 18 10 32 17 SE 1024,0 20 51 0,0
07.04.2020 12:00:00 19,7 5,0 20,4 13,6 12,7 23 12 41 22 SSE 1024,4 20 49 0,0
07.04.2020 11:00:00 17,7 2,0 17,8 13,7 12,7 22 12 38 20 SE 1024,7 20 52 0,0
07.04.2020 10:00:00 15,2 3,3 13,6 13,7 12,7 5 3 8 5 SSE 1025,1 20 15 0,0
07.04.2020 09:00:00 12,5 3,2 10,5 13,8 12,7 3 1 8 4 E 1025,0 20 0 0,0
07.04.2020 08:00:00 10,6 4,5 8,6 13,8 12,7 2 1 4 2 ESE 1024,8 20 10 0,0
07.04.2020 07:00:00 10,8 4,7 9,0 13,9 12,7 0 0 2 1 N 1024,6 20 0 0,0
07.04.2020 06:00:00 11,1 4,1 9,5 13,9 12,7 0 0 5 3 N 1024,5 20 0 0,0
07.04.2020 05:00:00 11,0 3,8 9,6 14,1 12,7 2 1 9 5 E 1024,4 20 0 0,0
07.04.2020 04:00:00 12,2 2,1 10,1 14,1 12,7 0 0 10 6 N 1024,6 20 0 0,0
07.04.2020 03:00:00 12,2 1,5 8,1 14,2 12,7 8 4 10 6 ESE 1024,9 20 0 0,0
07.04.2020 02:00:00 12,5 0,6 8,5 14,2 12,7 0 0 10 5 N 1025,1 20 0 0,0
07.04.2020 01:00:00 14,2 -1,1 11,8 14,2 12,7 6 4 14 8 E 1024,7 20 0 0,0
07.04.2020 00:00:00 14,5 0,0 10,3 14,3 12,7 4 2 8 4 E 1024,6 20 0 0,0
06.04.2020 23:00:00 14,6 0,1 12,6 14,3 12,7 6 3 12 7 E 1024,6 20 0 0,0
06.04.2020 22:00:00 15,3 -0,1 12,4 14,3 12,7 8 4 13 7 SE 1024,4 20 0 0,0
06.04.2020 21:00:00 15,7 1,0 13,4 14,2 12,7 5 3 16 9 SSE 1023,7 20 0 0,0
06.04.2020 20:00:00 17,3 0,0 16,2 14,1 12,6 11 6 22 12 SE 1022,9 20 0 0,0
06.04.2020 19:00:00 18,7 1,7 18,0 14,1 12,7 9 5 16 9 SE 1022,4 20 0 0,0
06.04.2020 18:00:00 19,5 2,4 20,2 13,9 12,6 9 5 23 12 S 1021,8 20 0 0,0
06.04.2020 17:00:00 19,6 2,4 19,9 13,8 12,7 16 9 27 14 SSE 1021,7 20 0 0,0
06.04.2020 16:00:00 19,3 1,7 20,4 13,7 12,6 15 8 25 14 SSE 1021,8 20 0 0,0
06.04.2020 15:00:00 19,2 2,5 20,8 13,5 12,6 16 8 30 16 SE 1021,8 20 0 0,0
06.04.2020 14:00:00 19,3 1,3 20,1 13,5 12,6 11 6 25 13 SE 1021,7 20 0 0,0
06.04.2020 13:00:00 18,7 0,8 20,7 13,4 12,6 11 6 31 17 SE 1021,8 20 2 0,0
06.04.2020 12:00:00 18,5 0,1 20,1 13,3 12,6 19 10 29 16 SSE 1021,7 20 43 0,0
06.04.2020 11:00:00 17,3 0,0 17,8 13,4 12,6 10 5 16 9 SSE 1021,6 20 24 0,0
06.04.2020 10:00:00 15,1 -0,3 14,7 13,4 12,6 0 0 8 5 N 1021,4 20 52 0,0
06.04.2020 09:00:00 12,7 -0,6 11,0 13,5 12,6 2 1 11 6 E 1020,8 20 3 0,0
06.04.2020 08:00:00 12,0 -1,5 10,5 13,6 12,6 8 4 12 6 E 1019,6 20 0 0,0
06.04.2020 07:00:00 11,6 -2,3 9,9 13,7 12,6 3 2 16 9 E 1019,2 20 0 0,0
06.04.2020 06:00:00 11,7 -2,2 10,3 13,8 12,6 10 6 19 11 E 1018,5 20 0 0,0
06.04.2020 05:00:00 12,8 -2,3 10,7 13,9 12,6 8 5 21 12 E 1018,2 20 0 0,0
06.04.2020 04:00:00 12,6 -1,7 9,4 14,0 12,6 9 5 21 12 SE 1018,2 20 0 0,0
06.04.2020 03:00:00 12,9 -2,2 10,2 14,1 12,6 11 6 19 11 SE 1018,4 20 0 0,0
06.04.2020 02:00:00 13,2 -3,2 10,3 14,2 12,6 11 6 24 13 SE 1018,3 20 0 0,0
06.04.2020 01:00:00 13,2 -3,6 10,7 14,3 12,6 12 6 22 12 ESE 1018,0 20 0 0,0
06.04.2020 00:00:00 12,9 -3,0 10,4 14,3 12,6 11 6 19 10 SE 1018,0 20 0 0,0
05.04.2020 23:00:00 13,6 -2,8 11,5 14,3 12,6 11 6 24 13 ESE 1017,6 20 0 0,0
05.04.2020 22:00:00 14,3 -2,6 12,3 14,3 12,5 14 7 31 17 ESE 1017,2 20 0 0,0
05.04.2020 21:00:00 15,6 -2,4 13,8 14,2 12,5 18 10 37 20 SE 1016,3 20 3 0,0
05.04.2020 20:00:00 17,3 -1,9 16,3 14,1 12,5 16 9 37 20 SE 1015,7 20 53 0,0
05.04.2020 19:00:00 19,1 -0,4 21,2 13,9 12,5 22 12 40 22 SE 1015,1 20 60 0,0
05.04.2020 18:00:00 20,3 -0,4 23,8 13,6 12,5 24 13 42 23 ESE 1015,1 20 60 0,0
05.04.2020 17:00:00 20,9 1,2 25,1 13,4 12,5 23 13 40 22 SE 1015,1 20 60 0,0
05.04.2020 16:00:00 21,3 1,5 25,7 13,2 12,5 29 16 50 27 SE 1015,3 20 60 0,0
05.04.2020 15:00:00 21,5 0,6 25,7 13,0 12,5 25 13 46 25 SE 1015,6 20 60 0,0
05.04.2020 14:00:00 21,4 0,0 24,8 12,9 12,5 24 13 46 25 SSE 1015,8 20 60 0,0
05.04.2020 13:00:00 20,6 -0,1 23,8 12,9 12,5 27 14 46 25 SE 1016,1 20 60 0,0
05.04.2020 12:00:00 19,8 0,7 21,9 12,9 12,5 24 13 40 22 SE 1016,7 20 60 0,0
05.04.2020 11:00:00 18,0 0,6 20,6 13,0 12,5 22 12 35 19 SE 1016,8 20 60 0,0
05.04.2020 10:00:00 13,6 3,1 15,3 13,1 12,5 3 2 7 4 ENE 1017,4 20 60 0,0
05.04.2020 09:00:00 8,7 2,7 4,6 13,3 12,5 2 1 5 3 E 1017,7 20 60 0,0
05.04.2020 08:00:00 3,7 0,7 -0,7 13,4 12,5 3 1 4 2 SE 1017,5 20 11 0,0
05.04.2020 07:00:00 3,9 0,8 -0,4 13,5 12,5 0 0 3 2 N 1017,0 20 0 0,0
05.04.2020 06:00:00 4,2 0,5 -0,1 13,7 12,5 0 0 4 2 N 1016,7 20 0 0,0
05.04.2020 05:00:00 4,9 0,5 0,7 13,8 12,5 0 0 4 2 N 1016,7 20 0 0,0
05.04.2020 04:00:00 6,0 0,9 0,9 13,9 12,5 0 0 12 6 N 1016,7 20 0 0,0
05.04.2020 03:00:00 8,5 0,9 4,8 14,0 12,5 10 5 13 7 E 1016,9 20 0 0,0
05.04.2020 02:00:00 9,2 1,1 6,0 14,1 12,5 5 3 12 7 E 1017,4 20 0 0,0
05.04.2020 01:00:00 10,7 1,2 8,4 14,2 12,5 8 5 19 10 E 1017,6 20 0 0,0
05.04.2020 00:00:00 12,2 0,6 10,0 14,2 12,5 10 5 23 12 ESE 1017,5 20 0 0,0
04.04.2020 23:00:00 13,4 1,7 11,8 14,2 12,5 16 9 32 17 SE 1017,4 20 0 0,0
04.04.2020 22:00:00 14,2 2,7 11,5 14,1 12,5 15 8 26 14 SE 1017,2 20 0 0,0
04.04.2020 21:00:00 15,7 1,4 13,9 14,0 12,5 19 10 29 16 SSE 1016,4 20 4 0,0
04.04.2020 20:00:00 18,8 1,3 18,5 13,8 12,4 14 8 27 14 SSE 1015,3 20 60 0,0
04.04.2020 19:00:00 21,3 0,5 23,8 13,6 12,5 14 8 22 12 SE 1014,9 20 60 0,0
04.04.2020 18:00:00 21,9 2,0 25,7 13,3 12,4 15 8 29 16 SE 1014,8 20 60 0,0
04.04.2020 17:00:00 21,5 4,1 27,5 13,0 12,4 13 7 26 14 SSE 1015,5 20 60 0,0
04.04.2020 16:00:00 21,0 2,7 26,9 12,7 12,4 11 6 22 12 SE 1016,1 17 60 0,0
04.04.2020 15:00:00 20,4 3,1 24,6 12,5 12,4 8 4 24 13 SE 1016,7 20 60 0,0
04.04.2020 14:00:00 19,1 4,1 24,0 12,4 12,4 9 5 23 12 SSE 1017,3 19 60 0,0
04.04.2020 13:00:00 17,4 2,9 23,2 12,4 12,4 11 6 19 11 SE 1018,2 19 60 0,0
04.04.2020 12:00:00 15,7 3,5 19,9 12,4 12,4 8 4 16 9 SE 1018,9 20 60 0,0
04.04.2020 11:00:00 12,8 3,7 16,3 12,5 12,4 2 1 5 3 E 1019,3 20 60 0,0
04.04.2020 10:00:00 9,6 2,9 10,9 12,6 12,4 3 2 6 3 ENE 1019,6 20 60 0,0
04.04.2020 09:00:00 5,9 1,6 1,3 12,7 12,4 3 1 9 5 E 1019,7 20 60 0,0
04.04.2020 08:00:00 1,7 0,4 -1,9 12,9 12,4 0 0 5 3 N 1019,5 20 9 0,0
04.04.2020 07:00:00 0,9 -1,2 -1,3 13,0 12,4 0 0 7 4 N 1019,5 19 0 0,0
04.04.2020 06:00:00 2,2 0,4 -1,3 13,2 12,4 0 0 5 3 N 1019,0 20 0 0,0
04.04.2020 05:00:00 2,6 0,3 0,1 13,3 12,4 4 2 8 4 E 1019,0 19 0 0,0
04.04.2020 04:00:00 3,4 1,1 -0,3 13,4 12,4 2 1 6 3 ENE 1018,7 20 0 0,0
04.04.2020 03:00:00 4,3 1,2 0,4 13,5 12,4 3 2 6 3 ENE 1018,8 20 0 0,0
04.04.2020 02:00:00 4,9 1,4 0,9 13,7 12,4 0 0 15 8 N 1018,7 20 0 0,0
04.04.2020 01:00:00 5,5 1,2 1,6 13,7 12,4 0 0 3 1 N 1018,7 19 0 0,0
04.04.2020 00:00:00 8,5 1,2 2,3 13,8 12,4 0 0 9 5 N 1018,6 20 0 0,0
03.04.2020 23:00:00 10,7 1,0 5,6 13,8 12,4 6 3 11 6 WSW 1018,7 20 0 0,0
03.04.2020 22:00:00 11,6 0,9 7,6 13,8 12,4 5 3 11 6 WSW 1018,6 20 0 0,0
03.04.2020 21:00:00 12,6 1,0 10,2 13,7 12,4 8 4 16 9 WSW 1018,1 19 2 0,0
03.04.2020 20:00:00 14,5 1,0 14,1 13,5 12,4 11 6 19 10 W 1017,8 20 60 0,0
03.04.2020 19:00:00 15,6 1,3 18,1 13,3 12,3 11 6 21 11 WNW 1017,4 20 60 0,0
03.04.2020 18:00:00 15,9 0,8 19,7 13,1 12,4 13 7 27 15 W 1017,4 20 60 0,0
03.04.2020 17:00:00 15,6 0,9 20,7 12,8 12,3 14 8 29 16 WNW 1017,5 20 60 0,0
03.04.2020 16:00:00 15,0 0,4 20,2 12,7 12,4 16 9 29 16 WNW 1018,1 20 60 0,0
03.04.2020 15:00:00 14,2 0,1 19,9 12,5 12,3 12 6 29 16 NW 1018,4 20 60 0,0
03.04.2020 14:00:00 13,8 0,8 18,4 12,4 12,3 18 10 37 20 WNW 1018,8 20 60 0,0
03.04.2020 13:00:00 13,0 0,4 17,8 12,3 12,3 16 9 31 17 NW 1019,2 20 60 0,0

tt = Température de l'air
td = dewpoint
tt 5cm = Température de l'air 5cm
tt -20cm = Température de l'air -20cm
tt -100cm = Température de l'air -100cm
ff = Vitesse du vent
fx = gusts
dd = Direction du vent
ppp = reduced air pressure
vv = visibility
sd = Ensoleillement
rr = Quantités de précipitations

stations d'obs. à proximité